Location: Le Petit-Vavre
(46.5081°N, 1.5239°E)
Time: 20:12:48
(UTC+00:00)

Cosmos 2322 - Pass Details

Date: 03 March 2021
Orbit: 842 x 853 km, 71.0° (Epoch: 20 April)

Event Time Altitude Azimuth Distance (km) Brightness Sun altitude
Rises 19:43:13 0° 200° (SSW) 3,407 6.9 -21.4°
Reaches altitude 10° 19:45:40 10° 199° (SSW) 2,476 6.2 -21.8°
Maximum altitude 19:51:21 79° 114° (ESE) 875 3.6 -22.7°
Drops below altitude 10° 19:57:04 10° 29° (NNE) 2,490 6.0 -23.7°
Sets 19:59:32 0° 28° (NNE) 3,429 6.8 -24.1°
